Hourly Data Report for October 11, 2017

All times are specified in Local Standard Time (LST). Add 1 hour to adjust for Daylight Saving Time where and when it is observed.

ST. PETERS
PRINCE EDWARD ISLAND

46°27'01.000" N
62°34'33.000" W
29.70 m
8300562
71310
ZSP

Download Data

Hourly Data (October 2017)
Hourly Data Report for October 11, 2017
Temp Definition
°C
Dew Point Temp Definition
°C
Rel Hum Definition
%
Wind Dir Definition
10's deg

Wind Spd Definition
km/h
Visibility Definition
km
Stn Press Definition
kPa
Hmdx Definition


Wind Chill Definition


Weather Definition


TIME
00:00 13.4 12.8 96 35 9   100.90     LegendNANA
01:00 13.4 11.0 85 34 8   100.92     LegendNANA
02:00 13.1 10.5 84 34 8   100.95     LegendNANA
03:00 13.1 10.2 83 31 9   101.00     LegendNANA
04:00 12.6 8.3 75 33 13   101.05     LegendNANA
05:00 12.5 7.8 73 32 7   101.07     LegendNANA
06:00 11.7 9.5 86 27 4   101.09     LegendNANA
07:00 11.7 6.9 72 34 10   101.17     LegendNANA
08:00 11.5 6.6 72 32 16   101.29     LegendNANA
09:00 12.1 5.6 64 33 17   101.30     LegendNANA
10:00 12.8 5.7 62 32 18   101.35     LegendNANA
11:00 12.3 3.9 57 32 20   101.37     LegendNANA
12:00 11.7 3.9 59 31 19   101.42     LegendNANA
13:00 12.1 3.2 54 30 27   101.44     LegendNANA
14:00 11.5 2.2 53 30 27   101.48     LegendNANA
15:00 10.3 2.8 59 31 26   101.53     LegendNANA
16:00 10.4 3.2 61 31 26   101.57     LegendNANA
17:00 10.5 1.5 54 31 26   101.64     LegendNANA
18:00 10.2 1.7 55 31 25   101.72     LegendNANA
19:00 10.2 1.9 56 31 25   101.78     LegendNANA
20:00 10.2 1.4 54 32 26   101.84     LegendNANA
21:00 9.8 2.2 59 31 25   101.86     LegendNANA
22:00 9.8 1.9 58 32 26   101.88     LegendNANA
23:00 9.2 0.7 55 33 22   101.94     LegendNANA

Notes on Data Quality.

Legend

  • E = Estimated
  • M = Missing
  • NA = Not Available
  • ‡ = Partner data that is not subject to review by the National Climate Archives
Date modified: